Startpagina
METAR-TAF:

METAR-TAF

Vliegvelden :

J6-a, Nederland

Productieplatform

breedte: 53-49-27N, lengte: 2-56-43E, hoogte: 34 m

Actueel weer

Dit bericht is 20 minuten geleden gemaakt, om 06:25 UTC
Wind 40 kt uit het noordwesten
Temperatuur 9°C
Vochtigheid 66%
Druk 1015 hPa

METAR: EHJA 190625Z AUTO 31040KT //// // FEW025/// SCT029/// BKN044/// 09/03 Q1015 RE//

Tijdstip: 07:45 (06:45 UTC)


TAF: ontbreekt

Waarnemingen en weersverwachtingen van meer dan 4000 vliegvelden (METAR en TAF).

De beschikbare stations zijn de gele en rode punten op de kaart.

Ga met uw muis naar het station om de naam te zien.

Klik dan om waarnemingen en weersverwachtingen te zien.

kaart wijzigen: klik op de groene knoppen met een zwart kruis om in te zoomen, op de groene knop met een streepje om uit te zoomen of op de groene pijlen voor aangrenzende kaarten.


METAR-TAF: